| time (UTC) | temp C | wind direction | speed KPH | gust KPH | rain 1hr cm | rain 24hr cm | rain mn cm | humidity % | barometer mb |
| 20260502220044 | 11 | 190 | 0.0 | 4.8 | 0.00 | 0.00 | 0.00 | 74 | 1008.9 |
| 20260502214541 | 11 | 165 | 0.0 | 6.4 | 0.00 | 0.00 | 0.00 | 73 | 1009.0 |
| 20260502213050 | 12 | 182 | 0.0 | 3.2 | 0.00 | 0.00 | 0.00 | 74 | 1009.1 |
| 20260502211545 | 12 | 204 | 1.6 | 11.3 | 0.00 | 0.00 | 0.00 | 73 | 1008.9 |
| 20260502210041 | 12 | 162 | 1.6 | 8.0 | 0.00 | 0.00 | 0.00 | 70 | 1009.0 |
| 20260502204547 | 12 | 159 | 4.8 | 16.1 | 0.00 | 0.00 | 0.00 | 68 | 1008.9 |
| 20260502203038 | 12 | 182 | 3.2 | 16.1 | 0.00 | 0.00 | 0.00 | 68 | 1008.9 |
| 20260502201534 | 12 | 151 | 1.6 | 11.3 | 0.00 | 0.00 | 0.00 | 68 | 1009.2 |
| 20260502200034 | 12 | 151 | 1.6 | 14.5 | 0.00 | 0.00 | 0.00 | 65 | 1009.4 |
| 20260502194536 | 12 | 197 | 0.0 | 16.1 | 0.00 | 0.00 | 0.00 | 59 | 1009.4 |
| 20260502193033 | 12 | 198 | 1.6 | 16.1 | 0.00 | 0.00 | 0.00 | 57 | 1009.6 |
| 20260502191537 | 13 | 148 | 6.4 | 16.1 | 0.00 | 0.00 | 0.00 | 55 | 1009.6 |
| 20260502190030 | 13 | 155 | 0.0 | 12.9 | 0.00 | 0.00 | 0.00 | 55 | 1009.4 |
| 20260502184533 | 13 | 159 | 3.2 | 12.9 | 0.00 | 0.00 | 0.00 | 55 | 1009.6 |
| 20260502183028 | 13 | 5 | 0.0 | 14.5 | 0.00 | 0.00 | 0.00 | 58 | 1009.8 |
| 20260502181530 | 13 | 201 | 1.6 | 11.3 | 0.00 | 0.00 | 0.00 | 52 | 1010.0 |
| 20260502163030 | 15 | 201 | 4.8 | 12.9 | 0.00 | 0.00 | 0.00 | 56 | 1010.0 |
| 20260502161518 | 15 | 43 | 1.6 | 9.7 | 0.00 | 0.00 | 0.00 | 57 | 1010.0 |
| 20260502151513 | 14 | 132 | 0.0 | 14.5 | 0.00 | 0.00 | 0.00 | 67 | 1010.9 |
| 20260502123051 | 11 | 184 | 3.2 | 8.0 | 0.00 | 0.00 | 0.00 | 72 | 1011.0 |
| 20260502121551 | 11 | 221 | 1.6 | 9.7 | 0.00 | 0.00 | 0.00 | 72 | 1011.1 |
| 20260502114541 | 10 | 161 | 3.2 | 9.7 | 0.00 | 0.00 | 0.00 | 78 | 1010.7 |
| 20260502113037 | 9 | 158 | 0.0 | 4.8 | 0.00 | 0.00 | 0.00 | 78 | 1010.8 |
| 20260502111532 | 9 | 157 | 0.0 | 3.2 | 0.00 | 0.00 | 0.00 | 78 | 1010.9 |
| 20260502110030 | 8 | 147 | 0.0 | 8.0 | 0.00 | 0.00 | 0.00 | 79 | 1010.9 |
| 20260502104548 | 8 | 159 | 0.0 | 4.8 | 0.00 | 0.00 | 0.00 | 81 | 1010.6 |
| 20260502103039 | 7 | 153 | 0.0 | 4.8 | 0.00 | 0.00 | 0.00 | 82 | 1010.7 |
| 20260502101535 | 7 | 159 | 0.0 | 9.7 | 0.00 | 0.00 | 0.00 | 81 | 1010.5 |
| 20260502091529 | 7 | 157 | 0.0 | 3.2 | 0.00 | 0.00 | 0.00 | 81 | 1010.5 |
| 20260502070016 | 7 | 140 | 0.0 | 1.6 | 0.00 | 0.00 | 0.00 | 75 | 1010.4 |
| 20260502064518 | 8 | 139 | 0.0 | 6.4 | 0.00 | 0.00 | 0.00 | 74 | 1010.4 |
| 20260502063014 | 7 | 174 | 0.0 | 4.8 | 0.00 | 0.00 | 0.00 | 75 | 1010.4 |
| 20260502061513 | 7 | 142 | 0.0 | 1.6 | 0.00 | 0.00 | 0.00 | 74 | 1010.4 |
| 20260502060012 | 7 | 142 | 0.0 | 11.3 | 0.00 | 0.00 | 0.00 | 73 | 1010.4 |
| 20260502054517 | 7 | 135 | 0.0 | 4.8 | 0.00 | 0.00 | 0.00 | 73 | 1010.5 |
| 20260502053009 | 7 | 165 | 0.0 | 3.2 | 0.00 | 0.00 | 0.00 | 73 | 1010.6 |
| 20260502051517 | 7 | 165 | 0.0 | 4.8 | 0.00 | 0.00 | 0.00 | 74 | 1010.6 |
| 20260502050009 | 7 | 144 | 0.0 | 4.8 | 0.00 | 0.00 | 0.00 | 73 | 1010.7 |
| 20260502044505 | 7 | 141 | 0.0 | 4.8 | 0.00 | 0.00 | 0.00 | 71 | 1010.7 |
| 20260502043005 | 7 | 134 | 0.0 | 3.2 | 0.00 | 0.00 | 0.00 | 73 | 1010.6 |
| 20260502041502 | 7 | 135 | 0.0 | 1.6 | 0.00 | 0.00 | 0.00 | 72 | 1010.7 |
| 20260502040059 | 8 | 135 | 0.0 | 3.2 | 0.00 | 0.00 | 0.00 | 72 | 1010.7 |
| 20260502040001 | 8 | 135 | 0.0 | 3.2 | 0.00 | 0.00 | 0.00 | 72 | 1010.8 |
| 20260502034558 | 8 | 134 | 0.0 | 6.4 | 0.00 | 0.00 | 0.00 | 74 | 1010.6 |
| 20260502033058 | 8 | 148 | 0.0 | 9.7 | 0.00 | 0.00 | 0.00 | 71 | 1010.6 |
| 20260502031609 | 9 | 130 | 0.0 | 4.8 | 0.00 | 0.00 | 0.00 | 71 | 1010.6 |
| 20260502030054 | 8 | 191 | 1.6 | 9.7 | 0.00 | 0.00 | 0.00 | 77 | 1010.5 |
| 20260502024557 | 7 | 253 | 0.0 | 1.6 | 0.00 | 0.00 | 0.00 | 76 | 1010.4 |
| 20260502023053 | 7 | 319 | 0.0 | 0.0 | 0.00 | 0.00 | 0.00 | 75 | 1010.4 |
| 20260502021554 | 7 | 319 | 0.0 | 0.0 | 0.00 | 0.00 | 0.00 | 73 | 1010.2 |
| 20260502014548 | 8 | 319 | 0.0 | 0.0 | 0.00 | 0.00 | 0.00 | 71 | 1010.3 |
| 20260502013049 | 8 | 319 | 0.0 | 0.0 | 0.00 | 0.00 | 0.00 | 69 | 1010.3 |
| 20260502011550 | 8 | 319 | 0.0 | 0.0 | 0.00 | 0.00 | 0.00 | 67 | 1010.1 |
| 20260502010049 | 9 | 319 | 0.0 | 0.0 | 0.00 | 0.00 | 0.00 | 64 | 1010.0 |
| 20260502004543 | 9 | 319 | 0.0 | 0.0 | 0.00 | 0.00 | 0.00 | 64 | 1009.8 |
| 20260502003041 | 10 | 319 | 0.0 | 0.0 | 0.00 | 0.00 | 0.00 | 62 | 1009.6 |
| 20260502001538 | 11 | 319 | 0.0 | 0.0 | 0.00 | 0.00 | 0.00 | 58 | 1009.3 |
| 20260502000036 | 12 | 319 | 0.0 | 1.6 | 0.00 | 0.00 | 0.00 | 51 | 1009.0 |
| 20260501234548 | 12 | 319 | 0.0 | 0.0 | 0.00 | 0.00 | 0.00 | 50 | 1008.7 |
| 20260501233036 | 13 | 319 | 0.0 | 0.0 | 0.00 | 0.00 | 0.00 | 42 | 1008.5 |
| 20260501231547 | 15 | 319 | 0.0 | 11.3 | 0.00 | 0.00 | 0.00 | 36 | 1008.3 |
| 20260501230034 | 15 | 300 | 0.0 | 1.6 | 0.00 | 0.00 | 0.00 | 38 | 1008.1 |
| 20260501224533 | 16 | 307 | 0.0 | 14.5 | 0.00 | 0.00 | 0.00 | 32 | 1007.8 |
| 20260501223033 | 16 | 292 | 3.2 | 12.9 | 0.00 | 0.00 | 0.00 | 32 | 1007.8 |
| 20260501221533 | 16 | 259 | 0.0 | 3.2 | 0.00 | 0.00 | 0.00 | 34 | 1007.6 |